Voltar ao catálogo

COSMOS 940

AtivoNavegaçãoLEO
NORAD 10286·PAYLOAD·🇷🇺 Russia

Lançado Aug 24, 1977 de Plesetsk Cosmodrome

Loading…

Próximas Passagens (próximas 24 horas)

TLE

AtualizadoSource: Space-Track

Época: Sep 14, 2026, 13:16 UTC

1 10286U 77079B   26257.55326050  .00000011  00000-0  15911-3 0  9997
2 10286  74.0264 167.4681 0042939  80.0818  94.6396 12.58904515223427

Acompanhe COSMOS 940 em tempo real com AllMySat

Download on the App Store